Location: Dötzum
(52.0808°N, 9.8063°E)
Time: 05:53:21
(UTC+00:00)

EO 1 Del DPAF - Pass Details

Date: 27 May 2022
Orbit: 462 x 465 km, 98.0° (Epoch: 26 June)

Event Time Altitude Azimuth Distance (km) Brightness Sun altitude
Rises 01:26:59 0° 19° (NNE) 2,538 8.6 -11.4°
Reaches altitude 10° 01:29:07 10° 27° (NNE) 1,652 7.3 -11.3°
Maximum altitude 01:32:31 43° 100° (E) 676 4.0 -11.0°
Drops below altitude 10° 01:35:52 10° 173° (S) 1,627 5.3 -10.7°
Enters shadow 01:35:54 10° 173° (S) 1,640 5.3 -10.7°
